DW2891 Weather Reports


Display with metric or nautical units.
time (UTC)temp
F
wind
direction
speed
MPH
gust
MPH
rain 1hr
in
rain 24hr
in
rain mn
in
humidity
%
barometer
mb
20260905220105 64 327 0.0 0.0 0.00 0.06 0.06 80 1016.7
20260905215604 64 327 0.0 0.0 0.00 0.06 0.06 81 1016.8
20260905215105 63 327 0.0 0.0 0.00 0.06 0.06 80 1016.8
20260905214606 64 327 0.0 0.0 0.00 0.06 0.06 81 1016.8
20260905214105 65 327 0.0 0.0 0.00 0.06 0.06 77 1016.8
20260905213605 65 327 0.0 0.0 0.00 0.06 0.06 76 1016.8
20260905212605 67 80 0.0 0.0 0.00 0.06 0.06 71 1016.8
20260905211105 65 252 0.0 1.0 0.00 0.06 0.06 76 1016.9
20260905210605 65 252 0.0 0.0 0.00 0.06 0.06 74 1016.9
20260905210105 66 250 0.0 1.0 0.00 0.06 0.06 73 1017.0
20260905205605 66 250 0.0 0.0 0.00 0.06 0.06 72 1017.0
20260905205105 66 250 0.0 0.0 0.00 0.06 0.06 75 1017.0
20260905204606 65 89 0.0 0.0 0.00 0.06 0.06 74 1017.0
20260905204105 65 32 0.0 0.0 0.00 0.06 0.06 73 1017.0
20260905203605 65 326 0.0 5.0 0.00 0.06 0.06 76 1017.0
20260905202605 66 346 0.0 8.0 0.00 0.06 0.06 77 1017.1
20260905202105 65 9 0.0 0.0 0.00 0.06 0.06 78 1017.1
20260905201605 65 9 0.0 0.0 0.00 0.06 0.06 75 1017.1
20260905201105 66 9 0.0 1.0 0.00 0.06 0.06 79 1017.1
20260905200605 65 11 0.0 0.0 0.01 0.06 0.06 79 1017.0
20260905200105 64 11 1.0 3.0 0.01 0.06 0.06 80 1017.1
20260905195605 65 23 0.0 0.0 0.01 0.06 0.06 79 1017.2
20260905195105 65 23 0.0 0.0 0.01 0.06 0.06 83 1017.2
20260905194605 64 23 0.0 3.0 0.01 0.06 0.06 79 1017.2
20260905193605 63 53 0.0 0.0 0.01 0.06 0.06 80 1017.3
20260905193106 63 48 0.0 1.0 0.01 0.06 0.06 82 1017.3
20260905192605 63 47 0.0 0.0 0.01 0.06 0.06 82 1017.4
20260905191605 63 47 0.0 0.0 0.01 0.06 0.06 82 1017.5
20260905190605 63 40 0.0 0.0 0.00 0.05 0.05 84 1017.4
20260905190105 64 40 0.0 0.0 0.00 0.05 0.05 80 1017.4
20260905185605 64 40 0.0 0.0 0.00 0.05 0.05 81 1017.4
20260905185105 63 288 0.0 0.0 0.00 0.05 0.05 83 1017.4
20260905184604 63 288 0.0 0.0 0.00 0.05 0.05 84 1017.4
20260905184105 62 288 0.0 0.0 0.00 0.05 0.05 83 1017.4
20260905183605 62 288 0.0 0.0 0.00 0.05 0.05 88 1017.5
20260905183105 62 288 0.0 0.0 0.00 0.05 0.05 89 1017.5
20260905181105 63 288 1.0 5.0 0.00 0.05 0.05 83 1017.6
20260905180604 63 314 0.0 0.0 0.00 0.05 0.05 83 1017.6
20260905180105 64 269 0.0 0.0 0.00 0.05 0.05 82 1017.6
20260905175605 63 269 0.0 0.0 0.00 0.05 0.05 86 1017.6
20260905175105 62 269 0.0 0.0 0.00 0.05 0.05 83 1017.6
20260905174605 62 269 0.0 2.0 0.00 0.05 0.05 83 1017.6
20260905174105 63 269 0.0 0.0 0.00 0.05 0.05 84 1017.6
20260905173605 63 269 0.0 0.0 0.00 0.05 0.05 87 1017.6
20260905173104 61 269 0.0 1.0 0.00 0.05 0.05 89 1017.6
20260905172605 61 266 0.0 0.0 0.00 0.05 0.05 89 1017.6
20260905172105 60 266 0.0 0.0 0.00 0.05 0.05 92 1017.6
20260905171605 60 266 0.0 0.0 0.00 0.05 0.05 89 1017.6
20260905170605 59 266 0.0 0.0 0.00 0.05 0.05 86 1017.6
20260905170105 59 266 0.0 0.0 0.00 0.05 0.05 89 1017.6
20260905165605 58 266 0.0 0.0 0.00 0.05 0.05 92 1017.6
20260905165104 58 266 0.0 0.0 0.00 0.05 0.05 94 1017.5
20260905164605 57 266 0.0 0.0 0.00 0.05 0.05 95 1017.5
20260905164105 57 266 0.0 0.0 0.00 0.05 0.05 95 1017.6
20260905163605 57 266 0.0 0.0 0.00 0.05 0.05 96 1017.7
20260905163105 57 266 0.0 0.0 0.00 0.05 0.05 96 1017.7
20260905162604 57 266 0.0 0.0 0.00 0.05 0.05 96 1017.7
20260905162105 57 266 0.0 0.0 0.00 0.05 0.05 96 1017.6
20260905161605 57 266 0.0 0.0 0.00 0.05 0.05 96 1017.7
20260905161105 57 266 0.0 0.0 0.00 0.05 0.05 96 1017.7
20260905160605 57 266 0.0 0.0 0.00 0.05 0.05 96 1017.6
20260905160105 57 266 0.0 0.0 0.00 0.05 0.05 96 1017.7
20260905155104 56 266 0.0 0.0 0.00 0.05 0.05 96 1017.8
20260905154605 56 266 0.0 0.0 0.00 0.05 0.05 96 1017.7
20260905154105 55 266 0.0 0.0 0.00 0.05 0.05 95 1017.6
20260905153605 55 266 0.0 0.0 0.00 0.05 0.05 96 1017.6
20260905153105 55 266 0.0 0.0 0.00 0.05 0.05 96 1017.5
20260905152604 55 266 0.0 0.0 0.00 0.05 0.05 95 1017.4
20260905152105 55 266 0.0 0.0 0.00 0.05 0.05 95 1017.3
20260905151604 55 266 0.0 0.0 0.00 0.05 0.05 95 1017.3
20260905151105 55 266 0.0 0.0 0.00 0.05 0.05 95 1017.3
20260905150604 55 266 0.0 0.0 0.00 0.05 0.05 95 1017.3
20260905145605 55 266 0.0 0.0 0.00 0.05 0.05 95 1017.2
20260905145105 55 266 0.0 0.0 0.00 0.05 0.05 95 1017.3
20260905144605 55 266 0.0 0.0 0.00 0.05 0.05 95 1017.3
20260905144105 55 266 0.0 0.0 0.00 0.05 0.05 95 1017.4
20260905143105 55 266 0.0 0.0 0.00 0.05 0.05 95 1017.4
20260905142605 55 266 0.0 0.0 0.00 0.05 0.05 95 1017.3
20260905142105 55 266 0.0 0.0 0.00 0.05 0.05 95 1017.3
20260905141604 55 266 0.0 0.0 0.00 0.05 0.05 95 1017.3
20260905140605 55 266 0.0 0.0 0.00 0.05 0.05 95 1017.3
20260905140105 55 266 0.0 0.0 0.00 0.05 0.05 95 1017.4
20260905135104 55 266 0.0 0.0 0.00 0.05 0.05 95 1017.3
20260905134605 55 266 0.0 0.0 0.00 0.05 0.05 95 1017.2
20260905134105 55 266 0.0 0.0 0.00 0.05 0.05 95 1017.2
20260905133605 55 266 0.0 0.0 0.00 0.05 0.05 95 1017.2
20260905133105 55 266 0.0 0.0 0.01 0.05 0.05 95 1017.1
20260905132605 55 266 0.0 0.0 0.01 0.05 0.05 95 1017.1
20260905132105 55 266 0.0 0.0 0.01 0.05 0.05 95 1017.1
20260905131605 55 266 0.0 0.0 0.01 0.05 0.05 94 1017.1
20260905131105 55 266 0.0 0.0 0.02 0.05 0.05 95 1017.1
20260905130604 55 266 0.0 0.0 0.02 0.05 0.05 95 1017.1
20260905125605 55 266 0.0 0.0 0.02 0.05 0.05 94 1017.1
20260905125105 55 266 0.0 0.0 0.03 0.05 0.05 94 1017.1
20260905124605 55 266 0.0 0.0 0.03 0.05 0.05 94 1017.0
20260905124104 55 266 0.0 0.0 0.03 0.05 0.05 94 1017.1
20260905123605 55 266 0.0 0.0 0.03 0.05 0.05 94 1017.2
20260905123105 55 266 0.0 0.0 0.03 0.04 0.04 94 1017.2
20260905121106 55 266 0.0 0.0 0.02 0.03 0.03 94 1017.3
20260905120605 55 266 0.0 0.0 0.02 0.03 0.03 94 1017.3
20260905120104 55 266 0.0 0.0 0.02 0.02 0.02 94 1017.2
20260905115605 55 266 0.0 0.0 0.02 0.02 0.02 94 1017.2
20260905115105 55 266 0.0 0.0 0.02 0.02 0.02 94 1017.2
20260905114605 55 266 0.0 0.0 0.02 0.02 0.02 93 1017.1
20260905114104 55 266 0.0 0.0 0.02 0.02 0.02 93 1017.0
20260905113605 55 266 0.0 0.0 0.02 0.02 0.02 93 1017.1
20260905113105 55 266 0.0 0.0 0.01 0.01 0.01 93 1017.0
20260905112605 55 266 0.0 0.0 0.01 0.01 0.01 93 1017.1
20260905112105 55 266 0.0 0.0 0.01 0.01 0.01 93 1017.0
20260905111604 56 266 0.0 0.0 0.01 0.01 0.01 93 1017.0
20260905111105 56 266 0.0 0.0 0.01 0.01 0.01 93 1016.9
20260905110605 56 266 0.0 0.0 0.01 0.01 0.01 92 1016.8
20260905110105 56 266 0.0 0.0 0.00 0.00 0.00 92 1016.8
20260905105605 56 266 0.0 0.0 0.00 0.00 0.00 92 1016.8
20260905104605 56 266 0.0 0.0 0.00 0.00 0.00 92 1016.9
20260905104104 56 266 0.0 0.0 0.00 0.00 0.00 91 1016.8
20260905103605 56 266 0.0 0.0 0.00 0.00 0.00 91 1016.8
20260905103105 56 266 0.0 0.0 0.00 0.00 0.00 91 1016.7
20260905102604 56 266 0.0 0.0 0.00 0.00 0.00 90 1016.8
20260905102105 56 266 0.0 0.0 0.00 0.00 0.00 90 1016.8
20260905101605 56 266 0.0 0.0 0.00 0.00 0.00 90 1016.8
20260905100605 56 266 0.0 0.0 0.00 0.00 0.00 89 1016.7
20260905100106 56 266 0.0 0.0 0.00 0.00 0.00 90 1016.7
20260905095105 56 266 0.0 0.0 0.00 0.00 0.00 90 1016.7
20260905094605 56 266 0.0 0.0 0.00 0.00 0.00 90 1016.8
20260905094105 56 266 0.0 0.0 0.00 0.00 0.00 89 1016.7
20260905093605 56 266 0.0 0.0 0.00 0.00 0.00 89 1016.8
20260905092605 56 266 0.0 0.0 0.00 0.00 0.00 89 1016.8
20260905092105 56 266 0.0 0.0 0.00 0.00 0.00 89 1016.8
20260905091605 56 266 0.0 0.0 0.00 0.00 0.00 88 1016.7
20260905091105 56 266 0.0 0.0 0.00 0.00 0.00 89 1016.7
20260905090604 56 266 0.0 0.0 0.00 0.00 0.00 89 1016.7
20260905090104 56 266 0.0 0.0 0.00 0.00 0.00 89 1016.6
20260905085604 56 266 0.0 0.0 0.00 0.00 0.00 90 1016.6
20260905085105 56 266 0.0 0.0 0.00 0.00 0.00 89 1016.4
20260905084605 56 266 0.0 0.0 0.00 0.00 0.00 90 1016.5
20260905084105 56 266 0.0 0.0 0.00 0.00 0.00 90 1016.4
20260905083604 56 266 0.0 0.0 0.00 0.00 0.00 90 1016.4
20260905083104 56 266 0.0 0.0 0.00 0.00 0.00 90 1016.4
20260905082605 56 266 0.0 0.0 0.00 0.00 0.00 89 1016.3
20260905081604 56 266 0.0 0.0 0.00 0.00 0.00 90 1016.4
20260905081104 56 266 0.0 0.0 0.00 0.00 0.00 90 1016.4
20260905080605 56 266 0.0 0.0 0.00 0.00 0.00 89 1016.4
20260905080105 56 266 0.0 0.0 0.00 0.00 0.00 89 1016.4
20260905075605 56 266 0.0 0.0 0.00 0.00 0.00 89 1016.1
20260905075104 56 266 0.0 0.0 0.00 0.00 0.00 89 1016.1
20260905074605 56 266 0.0 0.0 0.00 0.00 0.00 89 1016.1
20260905074105 56 266 0.0 0.0 0.00 0.00 0.00 89 1016.3
20260905073604 56 266 0.0 0.0 0.00 0.00 0.00 89 1016.2
20260905073104 56 266 0.0 0.0 0.00 0.00 0.00 89 1016.0
20260905072605 56 266 0.0 0.0 0.00 0.00 0.00 89 1016.0
20260905072105 56 266 0.0 0.0 0.00 0.00 0.00 89 1016.0
20260905071605 56 266 0.0 0.0 0.00 0.00 0.00 89 1016.0
20260905071104 56 266 0.0 0.0 0.00 0.00 0.00 88 1016.0
20260905065105 56 266 0.0 0.0 0.00 0.00 0.00 88 1016.1
20260905064605 56 266 0.0 0.0 0.00 0.00 0.00 88 1016.1
20260905064104 56 266 0.0 0.0 0.00 0.00 0.00 87 1016.1
20260905063605 56 266 0.0 0.0 0.00 0.00 0.00 88 1016.1
20260905062604 56 266 0.0 0.0 0.00 0.00 0.00 88 1016.0
20260905061605 56 266 0.0 0.0 0.00 0.00 0.00 87 1016.0
20260905060605 56 266 0.0 0.0 0.00 0.00 0.00 87 1016.0
20260905060104 56 266 0.0 0.0 0.00 0.00 0.00 87 1016.0
20260905055604 56 266 0.0 0.0 0.00 0.00 0.00 86 1016.0
20260905054605 56 266 0.0 0.0 0.00 0.00 0.00 86 1016.0
20260905054104 56 266 0.0 0.0 0.00 0.00 0.00 86 1016.1
20260905053605 56 266 0.0 0.0 0.00 0.00 0.00 86 1016.1
20260905053105 56 266 0.0 0.0 0.00 0.00 0.00 85 1016.1
20260905052605 56 266 0.0 0.0 0.00 0.00 0.00 85 1016.0
20260905052104 56 266 0.0 0.0 0.00 0.00 0.00 85 1015.9
20260905051605 56 266 0.0 0.0 0.00 0.00 0.00 84 1016.0
20260905051105 57 266 0.0 0.0 0.00 0.00 0.00 84 1016.0
20260905050604 57 266 0.0 0.0 0.00 0.00 0.00 84 1016.0
20260905050104 57 266 0.0 0.0 0.00 0.00 0.00 83 1015.9
20260905045604 57 266 0.0 0.0 0.00 0.00 0.00 83 1015.9
20260905045105 57 266 0.0 0.0 0.00 0.00 0.00 83 1015.9
20260905044604 57 266 0.0 0.0 0.00 0.00 0.00 83 1016.0
20260905044104 57 266 0.0 0.0 0.00 0.00 0.00 83 1016.0
20260905043605 57 266 0.0 0.0 0.00 0.00 0.00 83 1016.0
20260905043104 58 266 0.0 0.0 0.00 0.00 0.00 83 1015.9
20260905042604 58 266 0.0 0.0 0.00 0.00 0.00 83 1016.0
20260905042105 58 266 0.0 0.0 0.00 0.00 0.00 84 1015.9
20260905041104 58 266 0.0 0.0 0.00 0.00 0.00 83 1015.9
20260905040605 58 266 0.0 0.0 0.00 0.00 0.00 82 1015.9
20260905040105 58 266 0.0 0.0 0.00 0.00 0.00 82 1015.8
20260905035604 58 266 0.0 0.0 0.00 0.00 0.00 84 1015.8
20260905035104 58 266 0.0 0.0 0.00 0.00 0.00 83 1015.9
20260905034105 59 266 0.0 0.0 0.00 0.00 0.00 83 1015.8
20260905033105 59 266 0.0 0.0 0.00 0.00 0.00 82 1015.7
20260905032605 59 266 0.0 0.0 0.00 0.00 0.00 82 1015.6
20260905031604 60 266 0.0 0.0 0.00 0.00 0.00 83 1015.5
20260905030604 60 266 0.0 0.0 0.00 0.00 0.00 82 1015.3
20260905030105 60 266 0.0 0.0 0.00 0.00 0.00 83 1015.2
20260905025605 60 266 0.0 0.0 0.00 0.00 0.00 83 1015.3
20260905025104 61 266 0.0 0.0 0.00 0.00 0.00 83 1015.2
20260905024604 61 266 0.0 0.0 0.00 0.00 0.00 83 1015.1
20260905024104 61 266 0.0 0.0 0.00 0.00 0.00 82 1015.0
20260905023604 61 266 0.0 0.0 0.00 0.00 0.00 82 1015.0
20260905023104 61 266 0.0 0.0 0.00 0.00 0.00 82 1015.1
20260905022604 61 266 0.0 0.0 0.00 0.00 0.00 82 1015.1
20260905021605 61 266 0.0 0.0 0.00 0.00 0.00 82 1015.1
20260905021104 61 266 0.0 0.0 0.00 0.00 0.00 81 1015.0
20260905020605 61 266 0.0 0.0 0.00 0.00 0.00 81 1015.0
20260905020104 61 266 0.0 0.0 0.00 0.00 0.00 80 1015.0
20260905015604 61 266 0.0 0.0 0.00 0.00 0.00 79 1014.9
20260905015105 61 266 0.0 0.0 0.00 0.00 0.00 79 1014.9
20260905014604 61 266 0.0 0.0 0.00 0.00 0.00 80 1014.9
20260905013605 62 266 0.0 0.0 0.00 0.00 0.00 76 1014.8
20260905013104 62 266 0.0 0.0 0.00 0.00 0.00 78 1014.9
20260905012604 62 266 0.0 0.0 0.00 0.00 0.00 77 1014.9
20260905012105 62 266 0.0 0.0 0.00 0.00 0.00 75 1014.9
20260905011605 62 266 0.0 0.0 0.00 0.00 0.00 77 1014.9
20260905011104 62 266 0.0 0.0 0.00 0.00 0.00 76 1014.9
20260905010604 62 266 0.0 0.0 0.00 0.00 0.00 75 1014.8
20260905010104 63 266 0.0 0.0 0.00 0.00 0.00 77 1014.8
20260905005604 63 266 0.0 0.0 0.00 0.00 0.00 76 1014.8
20260905004104 63 266 0.0 0.0 0.00 0.00 0.00 74 1014.7
20260905003604 63 266 0.0 0.0 0.00 0.00 0.00 75 1014.7
20260905001605 63 266 0.0 0.0 0.00 0.00 0.00 76 1014.5
20260905001105 63 266 0.0 0.0 0.00 0.00 0.00 74 1014.5
20260905000605 63 266 0.0 0.0 0.00 0.00 0.00 74 1014.5
20260905000105 63 266 0.0 0.0 0.00 0.00 0.00 74 1014.5
20260904235604 63 266 0.0 0.0 0.00 0.00 0.00 73 1014.5
20260904235105 63 266 0.0 0.0 0.00 0.00 0.00 74 1014.4
20260904234605 63 266 0.0 0.0 0.00 0.00 0.00 73 1014.4
20260904234105 63 266 0.0 0.0 0.00 0.00 0.00 75 1014.4
20260904233604 63 266 0.0 0.0 0.00 0.00 0.00 72 1014.5
20260904232605 63 266 0.0 0.0 0.00 0.00 0.00 75 1014.5
20260904232105 63 266 0.0 0.0 0.00 0.00 0.00 73 1014.5
20260904230604 63 54 0.0 0.0 0.00 0.00 0.00 71 1014.5
20260904230104 63 54 0.0 0.0 0.00 0.00 0.00 74 1014.5
20260904225604 64 54 0.0 0.0 0.00 0.00 0.00 72 1014.5
20260904225104 63 54 0.0 0.0 0.00 0.00 0.00 72 1014.4
20260904224604 63 54 0.0 5.0 0.00 0.00 0.00 71 1014.5
20260904223604 63 265 0.0 0.0 0.00 0.00 0.00 74 1014.5
20260904223104 63 265 0.0 2.0 0.00 0.00 0.00 74 1014.4
20260904222604 63 263 0.0 0.0 0.00 0.00 0.00 75 1014.4
20260904222104 63 263 0.0 0.0 0.00 0.00 0.00 76 1014.4
20260904221604 63 297 0.0 0.0 0.00 0.00 0.00 76 1014.4
20260904221104 63 279 1.0 5.0 0.00 0.00 0.00 76 1014.5
20260904220604 63 335 0.0 2.0 0.00 0.00 0.00 77 1014.4